Skip Page Navigation
NASA JPL Caltech
NASA Logo - Jet Propulsion Laboratory + View the NASA Portal
+ Near-Earth Object (NEO) Program
Search JPL
JPL Home Earth Solar System Stars & Galaxies Technology
JPL Solar System Dynamics
BODIES ORBITS EPHEMERIDES TOOLS PHYSICAL DATA DISCOVERY FAQ SITE MAP
JPL Small-Body Database Browser
Search: [ help ]  
69 Hesperia
Classification: Main-belt Asteroid          SPK-ID: 2000069
Ephemeris | Orbit Diagram | Orbital Elements | Physical Parameters | Discovery Circumstances | Close-Approach Data ]

[ hide orbit diagram ]
Orbit Diagram
Note: Make sure you have Java enabled on your browser to see the applet. This applet is provided as a 3D orbit visualization tool. The applet was implemented using 2-body methods, and hence should not be used for determining accurate long-term trajectories (over several years or decades) or planetary encounter circumstances. For accurate long-term ephemerides, please instead use our Horizons system.
Orbit Viewer

Additional Notes: the orbits shown in the applet are color coded. The planets are white lines, and the asteroid/comet is a blue line. The bright white line indicates the portion of the orbit that is above the ecliptic plane, and the darker portion is below the ecliptic plane. Likewise for the asteroid/comet orbit, the light blue indicates the portion above the ecliptic plane, and the dark blue the portion below the ecliptic plane.

Orbit Viewer applet originally written and kindly provided by Osamu Ajiki (AstroArts), and further modified by Ron Baalke (JPL).


Orbital Elements at Epoch 2456400.5 (2013-Apr-18.0) TDB
Reference: JPL 86 (heliocentric ecliptic J2000)
 Element Value Uncertainty (1-sigma)   Units 
e .1699286050665651 3.7435e-08  
a 2.976065634573049 8.5151e-09 AU
q 2.470346952703509 1.1091e-07 AU
i 8.585003081566796 4.7028e-06 deg
node 185.0407523458583 3.0053e-05 deg
peri 289.77534843117 3.3541e-05 deg
M 238.0914252309837 1.5059e-05 deg
tp 2457035.529553838196
(2015-Jan-13.02955384)
7.9126e-05 JED
period 1875.262997823621
5.13
8.0483e-06
2.204e-08
d
yr
n .1919730727998186 8.2391e-10 deg/d
Q 3.481784316442589 9.9621e-09 AU
  Orbit Determination Parameters
   # obs. used (total)      1980  
   data-arc span      55325 days (151.47 yr)  
   first obs. used      1861-04-29  
   last obs. used      2012-10-19  
   planetary ephem.      DE405  
   SB-pert. ephem.      SB405-CPV-2  
   condition code      0  
   fit RMS      .4859  
   data source      ORB  
   producer      Otto Matic  
   solution date      2013-Mar-29 15:06:54  

Additional Information
 Earth MOID = 1.50202 AU 
 T_jup = 3.222 
[ show covariance matrix ]

Ephemeris | Orbit Diagram | Orbital Elements | Physical Parameters | Discovery Circumstances | Close-Approach Data ]

Physical Parameter Table
Parameter Symbol Value Units Sigma Reference Notes
absolute magnitude H 7.05 mag n/a IRAS-A-FPA-3-RDR-IMPS-V6.0 IRAS observations used: 3
magnitude slope G 0.19   n/a PDS3 (MPC 17257) Fit
diameter diameter 138.13 km 4.7 IRAS-A-FPA-3-RDR-IMPS-V6.0 IRAS observations used: 3
rotation period rot_per 5.655 h n/a Asteroid Lightcurve DataBase (Rev. 2013-May-01) Published Reference List:
[Poutanen, M.; Bowell, E.; Martin, L.J.; Thompson, D.T. (1985) Astron. Astrophys. Suppl. Ser. 61, 291-297.]
[Di Martino, M.; Zappala, V.; De Sanctis, G.; Cacciatori, S. (1987) Icarus 69, 338-353.]
[Velichko, F.P.; Krugly, Yu.N. (1989) In "Methods of investigation of movement, physics and dynamic of Solar System small bodies, Dushanbe, p. 14-15 (in Russian).]
[Hainaut-Rouelle, M.-C.; Hainaut, O.R.; Detal, A. (1995) Astron. Astrophys. Suppl. Ser. 112, 125-142.]
[De Angelis, G.; Mottola, S. (1995) Planet. Space Sci. 43, 1013-1017.]
[Behrend, R. (2002) Observatoire de Geneve web site, http://obswww.unige.ch/~behrend/page_cou.html]
[Torppa, J.; Kaasalainen, M.; Michalowski, T.; Kwiatkowski, T.; et al. (2003) Icarus 164, 346-383.]
[Hanus, J.; Durech, J.; Broz, M.; Warner, B.D.; et al. (2011) Astron. Astrophys. 530, A134.]
geometric albedo albedo 0.1402   0.010 IRAS-A-FPA-3-RDR-IMPS-V6.0 IRAS observations used: 3
B-V BV .674 mag .021 EAR-A-5-DDR-UBV-MEAN-VALUES-V1.1 #obs=5; phase (min.=6.83, mean=7.96, max.=9.99) deg.
U-B UB .230 mag .045 EAR-A-5-DDR-UBV-MEAN-VALUES-V1.1 #obs=5; phase (min.=6.83, mean=7.96, max.=9.99) deg.
Tholen spectral type spec_T M   n/a EAR-A-5-DDR-TAXONOMY-V4.0 used 7 color indices; used ground-based radiometric albedo
SMASSII spectral type spec_B X   n/a EAR-A-5-DDR-TAXONOMY-V4.0 based on a high-resolution spectrum by Xu et al. (1995) or Bus and Binzel (2002)

69 Hesperia          Discovered 1861-Apr-26 by Schiaparelli, G. at Milan
Apr. 29 is date of first measurement.
Reference: DISCOVERY.DBLast Updated: 2003-08-29

[ show close-approach data ]
Alternate Designations
 1932 CM1 = 1945 NB 
Ephemeris | Orbit Diagram | Orbital Elements | Physical Parameters | Discovery Circumstances | Close-Approach Data ]
ABOUT SSD CREDITS/AWARDS PRIVACY/COPYRIGHT GLOSSARY LINKS
FirstGov 2013-May-25 15:55 UT
(server date/time)  
NASA Home Page
Site Manager:   Donald K. Yeomans
Webmaster  Alan B. Chamberlin